This demonstration page uses our WeatherBlox Daily Observations layout. Learn more.

Left ArrowRight Arrow

Hourly Observations for July 10, 2015

Temp ( °F °C ) Dew Point ( °F °C ) Humidity (%) Winds ( mph kmh ) Pressure ( in mb ) Visibility ( mi km ) Precip ( " mm )
12:53 am 00:53 Partly Cloudy 71 21.7 60 15.6 68 68 SSE 6 9 29.82 1010 10 16 0.00 0.00
1:53 am 01:53 Mostly Cloudy 70 21.1 60 15.6 71 71 S 9 15 29.82 1010 10 16 0.00 0.00
2:53 am 02:53 Mostly Cloudy 70 21.1 58 14.4 66 66 S 7 11 29.82 1010 10 16 0.00 0.00
3:53 am 03:53 Cloudy 70 21.1 58 14.4 66 66 S 10 17 29.83 1010 10 16 0.00 0.00
4:53 am 04:53 Cloudy 68 20 57 13.9 68 68 E 3 6 29.83 1010 10 16 0.00 0.00
5:53 am 05:53 Cloudy 67 19.4 57 13.9 71 71 SE 6 9 29.85 1011 10 16 0.00 0.00
6:53 am 06:53 Cloudy 66 19 57 14 73 73 SSE 7 11 29.88 1012 10 16 0.00 0.00
7:53 am 07:53 Cloudy 67 19.4 57 13.9 71 71 VRB 5 7 29.87 1012 10 16 0.00 0.00
8:53 am 08:53 Mostly Cloudy 69 20.6 57 13.9 66 66 S 6 9 29.88 1012 10 16 0.00 0.00
9:53 am 09:53 Mostly Cloudy 72 22.2 58 14.4 61 61 SSW 8 13 29.88 1012 10 16 0.00 0.00
10:53 am 10:53 Partly Cloudy 75 23.9 57 13.9 54 54 SW 5 7 29.88 1012 10 16 0.00 0.00
11:53 am 11:53 Cloudy 76 24.4 57 13.9 52 52 SW 6 9 29.88 1012 10 16 0.00 0.00
12:53 pm 12:53 Partly Cloudy 79 26.1 57 13.9 47 47 SSE 7 11 29.88 1012 10 16 0.00 0.00
1:53 pm 13:53 Partly Cloudy 82 27.8 57 13.9 42 42 S 14 22 29.86 1011 10 16 0.00 0.00
2:53 pm 14:53 Partly Cloudy 82 27.8 57 13.9 42 42 SSE 9 15 29.84 1011 10 16 0.00 0.00
3:53 pm 15:53 Partly Cloudy 81 27.2 56 13.3 42 42 S 7 11 29.83 1010 10 16 0.00 0.00
4:53 pm 16:53 Mostly Sunny 84 28.9 55 12.8 37 37 S 8 13 29.81 1009 10 16 0.00 0.00
5:53 pm 17:53 Sunny 83 28.3 56 13.3 40 40 SSE 14 22 29.80 1009 10 16 0.00 0.00
6:53 pm 18:53 Sunny 84 28.9 56 13.3 38 38 SSW 12 19 29.80 1009 10 16 0.00 0.00
7:53 pm 19:53 Sunny 81 27.2 57 13.9 44 44 SSE 13 20 29.80 1009 10 16 0.00 0.00
8:53 pm 20:53 Clear 78 25.6 53 11.7 42 42 SSE 9 15 29.82 1010 10 16 0.00 0.00
9:53 pm 21:53 Mostly Cloudy 75 23.9 55 12.8 50 50 SSE 6 9 29.84 1011 10 16 0.00 0.00
10:53 pm 22:53 Mostly Cloudy 75 23.9 57 13.9 54 54 SSE 3 6 29.85 1011 10 16 0.00 0.00
11:53 pm 23:53 Partly Cloudy 74 23.3 58 14.4 57 57 Calm 29.86 1011 10 16 0.00 0.00

Powered by AerisWeather